Location: ???????????
(55.5758°N, 38.4970°E)
Time: 17:54:15
(UTC+00:00)

CZ-2C R/B - Pass Details

Date: 15 November 2025
Orbit: 664 x 773 km, 98.4° (Epoch: 14 December)

Event Time Altitude Azimuth Distance (km) Brightness Sun altitude
Rises 03:12:11 0° 11° (N) 3,202 5.7 -15.0°
Reaches altitude 10° 03:14:44 10° 360° (N) 2,290 4.8 -14.6°
Maximum altitude 03:18:57 27° 303° (WNW) 1,429 3.4 -14.0°
Enters shadow 03:21:47 17° 258° (WSW) 1,877 4.0 -13.6°
